Location: Glendale
(37.4556°N, 88.6714°W)
Time: 06:10:10
(UTC+00:00)

CZ-4B R/B - Pass Details

Date: 08 December 2019
Orbit: 809 x 881 km, 99.1° (Epoch: 21 January)

Event Time Altitude Azimuth Distance (km) Brightness Sun altitude
Rises 11:00:19 0° 20° (NNE) 3,448 6.5 -22.4°
Reaches altitude 10° 11:02:48 10° 27° (NNE) 2,517 5.8 -21.9°
Maximum altitude 11:08:10 46° 100° (E) 1,164 4.4 -20.9°
Drops below altitude 10° 11:13:33 10° 172° (S) 2,527 5.9 -19.9°
Sets 11:16:02 0° 179° (S) 3,464 6.6 -19.4°
